FW5174 Weather Reports


time (UTC)temp
F
wind
direction
speed
knots
gust
knots
rain 1hr
in
rain 24hr
in
rain mn
in
humidity
%
barometer
mb
20260906044034 70 1 0.0 0.0 0.00 0.07 0.00 74 1012.1
20260906043533 70 1 0.0 0.0 0.00 0.07 0.00 74 1012.0
20260906043029 70 1 0.0 0.9 0.00 0.07 0.00 74 1011.9
20260906042527 70 1 0.0 0.9 0.00 0.07 0.00 73 1011.9
20260906042026 70 1 0.0 0.9 0.00 0.07 0.00 72 1011.9
20260906041525 70 336 0.0 0.9 0.00 0.07 0.00 71 1011.9
20260906041025 70 336 0.0 0.9 0.00 0.07 0.07 71 1011.9
20260906040524 71 15 0.0 0.0 0.00 0.07 0.07 71 1012.1
20260906035519 71 15 0.0 0.0 0.00 0.07 0.07 71 1012.1
20260906035019 71 15 0.0 0.0 0.00 0.07 0.07 71 1012.2
20260906034518 71 15 0.0 0.9 0.00 0.07 0.07 71 1012.4
20260906034019 71 102 0.0 0.9 0.00 0.07 0.07 71 1012.4
20260906033516 71 100 0.0 0.9 0.00 0.07 0.07 71 1012.4
20260906033017 71 91 0.0 0.9 0.00 0.07 0.07 71 1012.5
20260906032515 71 91 0.0 0.9 0.00 0.07 0.07 71 1012.7
20260906032017 71 93 0.0 0.0 0.00 0.07 0.07 72 1012.6
20260906031514 71 345 0.0 0.0 0.00 0.07 0.07 71 1012.5
20260906031018 71 340 0.0 0.0 0.00 0.07 0.07 71 1012.6
20260906030513 71 340 0.0 0.0 0.00 0.07 0.07 71 1012.6
20260906025513 71 340 0.0 0.0 0.00 0.07 0.07 72 1012.4
20260906025012 71 27 0.0 0.0 0.00 0.07 0.07 71 1012.4
20260906024512 71 328 0.0 0.0 0.00 0.07 0.07 70 1012.3
20260906024011 71 328 0.0 0.0 0.00 0.07 0.07 70 1012.2
20260906023510 71 328 0.0 0.9 0.00 0.07 0.07 69 1012.1
20260906023010 71 314 0.0 0.9 0.00 0.07 0.07 69 1012.1
20260906022509 72 335 0.0 1.7 0.00 0.07 0.07 68 1012.1
20260906022009 72 348 0.0 1.7 0.00 0.07 0.07 67 1012.1
20260906021517 72 14 0.0 0.9 0.00 0.07 0.07 66 1012.0
20260906021007 73 1 0.0 0.9 0.00 0.07 0.07 66 1012.1
20260906020506 73 352 0.0 0.9 0.00 0.07 0.07 65 1012.1
20260906015509 73 111 0.0 0.9 0.00 0.07 0.07 65 1012.0
20260906015009 73 111 0.0 0.9 0.00 0.07 0.07 65 1012.0
20260906014514 73 96 0.0 0.9 0.00 0.07 0.07 65 1011.9
20260906014008 73 96 0.0 1.7 0.00 0.07 0.07 65 1011.8
20260906013507 74 343 0.0 0.0 0.00 0.07 0.07 65 1011.8
20260906013015 73 342 0.0 0.9 0.00 0.07 0.07 66 1011.9
20260906012505 73 342 0.0 0.9 0.00 0.07 0.07 66 1011.7
20260906012005 74 75 0.0 0.0 0.00 0.07 0.07 66 1011.5
20260906011505 74 314 0.0 0.9 0.00 0.07 0.07 66 1011.5
20260906011004 74 43 0.0 0.9 0.00 0.07 0.07 68 1011.6
20260906010508 75 34 0.0 0.9 0.00 0.07 0.07 68 1011.4
20260906005600 75 95 0.0 0.0 0.00 0.07 0.07 68 1011.3
20260906005102 75 95 0.0 0.0 0.00 0.07 0.07 68 1011.4
20260906004559 75 95 0.0 1.7 0.00 0.07 0.07 68 1011.3
20260906004100 76 93 0.0 1.7 0.00 0.07 0.07 67 1011.2
20260906003558 77 105 0.0 0.9 0.00 0.07 0.07 66 1011.0
20260906003058 76 332 0.0 0.9 0.00 0.07 0.07 67 1011.0
20260906002557 76 332 0.0 0.9 0.00 0.07 0.07 68 1011.0
20260906002057 77 56 0.0 0.9 0.00 0.07 0.07 67 1011.0
20260906001555 78 110 0.0 0.9 0.00 0.07 0.07 65 1010.9
20260906001155 78 112 0.0 0.9 0.00 0.07 0.07 65 1010.8
20260906000555 79 41 0.0 0.0 0.00 0.07 0.07 64 1010.8
20260905235556 80 40 0.0 0.9 0.00 0.07 0.07 63 1010.8
20260905235055 80 21 0.0 0.9 0.00 0.07 0.07 63 1010.7
20260905234556 80 11 0.0 0.9 0.00 0.07 0.07 64 1010.7
20260905234054 81 15 0.0 1.7 0.00 0.07 0.07 62 1010.6
20260905233558 81 35 0.0 1.7 0.00 0.07 0.07 62 1010.5
20260905233057 82 70 0.0 0.9 0.00 0.07 0.07 60 1010.7
20260905232553 83 103 0.0 0.9 0.00 0.07 0.07 60 1010.6
20260905232053 82 98 0.0 0.9 0.00 0.07 0.07 61 1010.6
20260905231552 82 89 0.0 0.9 0.00 0.07 0.07 60 1010.6
20260905231055 82 81 0.0 0.9 0.00 0.07 0.07 61 1010.5
20260905230551 85 94 0.0 0.9 0.00 0.07 0.07 57 1010.4
20260905225649 86 109 0.0 1.7 0.00 0.07 0.07 54 1010.1
20260905225054 88 110 0.0 0.9 0.00 0.07 0.07 52 1010.1
20260905224549 87 111 0.0 1.7 0.00 0.07 0.07 53 1010.0
20260905224049 87 65 0.0 1.7 0.00 0.07 0.07 52 1010.0
20260905223547 88 100 0.9 1.7 0.00 0.07 0.07 51 1010.0
20260905223048 89 99 0.0 1.7 0.00 0.07 0.07 50 1010.0
20260905222546 92 111 0.0 1.7 0.00 0.07 0.07 46 1010.3
20260905222044 93 63 0.0 0.9 0.00 0.07 0.07 45 1010.2
20260905221545 93 39 0.0 0.9 0.00 0.07 0.07 44 1010.2
20260905221044 92 103 0.0 0.9 0.00 0.07 0.07 44 1010.4
20260905220543 92 238 0.0 0.9 0.00 0.07 0.07 46 1010.1
20260905215541 91 258 0.0 1.7 0.00 0.07 0.07 45 1010.3
20260905215040 90 49 0.0 1.7 0.00 0.07 0.07 48 1010.5
20260905214539 89 252 0.0 1.7 0.00 0.07 0.07 48 1010.5
20260905214039 88 26 0.9 1.7 0.00 0.07 0.07 49 1010.3
20260905213538 89 253 0.0 1.7 0.00 0.07 0.07 48 1010.4
20260905213037 88 351 0.9 3.5 0.00 0.07 0.07 49 1010.5
20260905212539 87 51 0.9 3.5 0.00 0.07 0.07 50 1010.5
20260905212036 88 353 0.0 0.0 0.00 0.07 0.07 50 1010.7
20260905211538 87 42 0.0 0.0 0.00 0.07 0.07 51 1010.8
20260905211034 88 37 0.0 0.0 0.00 0.07 0.07 48 1010.7
20260905210534 86 340 0.0 0.9 0.00 0.07 0.07 51 1010.7
20260905205537 84 59 1.7 3.5 0.00 0.07 0.07 54 1010.8
20260905205036 83 53 0.0 2.6 0.00 0.07 0.07 56 1010.9
20260905204536 81 335 0.0 2.6 0.00 0.07 0.07 58 1011.0
20260905204035 81 304 0.9 2.6 0.00 0.07 0.07 58 1011.0
20260905203536 80 35 0.0 1.7 0.00 0.07 0.07 59 1011.2
20260905203034 80 330 0.0 1.7 0.00 0.07 0.07 60 1011.2
20260905202636 79 235 0.0 2.6 0.00 0.07 0.07 61 1011.3
20260905202034 79 21 0.0 0.9 0.00 0.07 0.07 61 1011.4
20260905201532 79 352 0.0 1.7 0.00 0.07 0.07 60 1011.4
20260905201031 79 317 0.0 1.7 0.00 0.07 0.07 62 1011.5
20260905200534 78 62 0.9 2.6 0.00 0.07 0.07 62 1011.8
20260905195525 78 6 0.0 0.9 0.00 0.07 0.07 62 1011.5
20260905195026 78 62 0.0 0.0 0.00 0.07 0.07 62 1011.5
20260905194526 78 2 0.0 0.0 0.00 0.07 0.07 62 1011.7
20260905194025 77 79 0.0 1.7 0.00 0.07 0.07 61 1011.8
20260905193531 77 110 0.0 3.5 0.00 0.07 0.07 62 1011.7
20260905193026 78 86 0.9 1.7 0.00 0.07 0.07 62 1011.7
20260905192526 78 105 0.0 0.9 0.00 0.07 0.07 61 1011.8
20260905192022 77 101 0.0 0.9 0.00 0.07 0.07 62 1011.9
20260905191530 77 223 0.0 0.9 0.00 0.07 0.07 61 1011.8
20260905191025 77 134 0.0 3.5 0.00 0.07 0.07 62 1011.7
20260905190520 75 264 0.9 5.2 0.07 0.07 0.07 62 1011.8
20260905185524 76 247 0.0 1.7 0.07 0.07 0.07 63 1011.9
20260905185024 75 95 0.0 3.5 0.07 0.07 0.07 65 1011.7
20260905184531 75 255 1.7 3.5 0.07 0.07 0.07 67 1011.8
20260905184023 75 74 1.7 3.5 0.07 0.07 0.07 67 1011.8
20260905183525 76 25 0.0 1.7 0.07 0.07 0.07 66 1011.6
20260905183022 76 58 0.0 3.5 0.07 0.07 0.07 64 1011.8
20260905182524 77 335 0.9 3.5 0.07 0.07 0.07 63 1011.9
20260905182021 76 46 0.0 2.6 0.07 0.07 0.07 64 1011.7
20260905181520 76 233 0.0 4.3 0.07 0.07 0.07 62 1011.2
20260905181019 77 143 1.7 7.0 0.07 0.07 0.07 61 1010.7
20260905180516 78 91 1.7 13.9 0.06 0.06 0.06 57 1011.1
20260905175513 85 3 3.5 33.9 0.00 0.00 0.00 43 1012.3
20260905175014 89 69 10.4 33.9 0.00 0.00 0.00 38 1013.2
20260905174510 94 92 3.5 13.0 0.00 0.00 0.00 38 1012.5
20260905174010 95 184 5.2 13.0 0.00 0.00 0.00 36 1012.2
20260905173509 97 97 1.7 6.1 0.00 0.00 0.00 36 1011.8
20260905173007 96 116 0.0 6.1 0.00 0.00 0.00 38 1011.8
20260905172505 96 89 0.9 5.2 0.00 0.00 0.00 38 1012.0
20260905172004 95 121 1.7 8.7 0.00 0.00 0.00 37 1012.0
20260905171503 95 147 3.5 8.7 0.00 0.00 0.00 37 1012.2
20260905171004 96 112 1.7 4.3 0.00 0.00 0.00 37 1012.2
20260905170502 95 259 0.9 7.0 0.00 0.00 0.00 39 1012.1
20260905165502 94 101 2.6 7.0 0.00 0.00 0.00 38 1012.1
20260905165000 95 108 0.9 6.1 0.00 0.00 0.00 38 1012.1
20260905164601 94 91 0.0 6.1 0.00 0.00 0.00 36 1012.1
20260905164059 94 147 1.7 7.8 0.00 0.00 0.00 38 1012.2
20260905163602 93 58 0.9 7.8 0.00 0.00 0.00 38 1012.3
20260905163058 92 126 2.6 7.0 0.00 0.00 0.00 40 1012.3
20260905162558 91 103 2.6 9.6 0.00 0.00 0.00 42 1012.3
20260905162058 93 65 2.6 9.6 0.00 0.00 0.00 41 1012.5
20260905161556 94 80 2.6 6.1 0.00 0.00 0.00 39 1012.6
20260905161157 95 85 1.7 3.5 0.00 0.00 0.00 39 1012.7
20260905160554 96 40 0.9 2.6 0.00 0.00 0.00 40 1012.6
20260905160152 94 248 0.0 2.6 0.00 0.00 0.00 41 1012.7
20260905155557 94 356 0.0 2.6 0.00 0.00 0.00 41 1012.8
20260905155053 93 328 0.9 2.6 0.00 0.00 0.00 42 1012.7
20260905154550 92 259 0.0 2.6 0.00 0.00 0.00 46 1012.8
20260905154050 91 198 0.9 2.6 0.00 0.00 0.00 45 1012.8
20260905153546 91 12 0.9 2.6 0.00 0.00 0.00 48 1012.7
20260905153100 90 328 0.9 2.6 0.00 0.00 0.00 46 1012.7
20260905152545 90 32 0.9 2.6 0.00 0.00 0.00 49 1012.6
20260905152044 90 300 0.9 2.6 0.00 0.00 0.00 49 1012.6
20260905151543 90 23 0.0 1.7 0.00 0.00 0.00 51 1012.5
20260905151041 89 86 0.0 2.6 0.00 0.00 0.00 50 1012.6
20260905150539 88 324 0.9 1.7 0.00 0.00 0.00 51 1012.4
20260905150138 87 322 0.0 1.7 0.00 0.00 0.00 54 1012.5
20260905145533 87 336 0.0 2.6 0.00 0.00 0.00 54 1012.5
20260905145033 86 18 0.9 2.6 0.00 0.00 0.00 53 1012.7
20260905144530 86 79 0.0 2.6 0.00 0.00 0.00 56 1012.6
20260905144028 85 10 0.0 2.6 0.00 0.00 0.00 57 1012.7
20260905143528 85 6 0.0 2.6 0.00 0.00 0.00 57 1012.7
20260905143028 85 348 0.0 2.6 0.00 0.00 0.00 57 1012.7
20260905142524 84 4 0.0 0.9 0.00 0.00 0.00 59 1012.7
20260905142021 83 32 0.0 0.0 0.00 0.00 0.00 60 1012.9
20260905141521 83 330 0.0 1.7 0.00 0.00 0.00 60 1012.9
20260905141019 82 8 0.0 1.7 0.00 0.00 0.00 61 1012.9
20260905140518 82 356 0.0 1.7 0.00 0.00 0.00 61 1012.9
20260905140118 81 355 0.0 2.6 0.00 0.00 0.00 64 1012.7
20260905135518 81 355 0.0 2.6 0.00 0.00 0.00 65 1012.7
20260905135015 80 255 0.0 2.6 0.00 0.00 0.00 65 1012.9
20260905134513 79 218 0.0 0.9 0.00 0.00 0.00 67 1012.9
20260905134013 78 17 0.0 2.6 0.00 0.00 0.00 69 1012.9
20260905133512 78 27 0.0 2.6 0.00 0.00 0.00 70 1012.9
20260905133008 77 326 0.0 1.7 0.00 0.00 0.00 70 1013.1
20260905132506 77 340 0.0 1.7 0.00 0.00 0.00 71 1013.2
20260905132007 76 29 0.0 1.7 0.00 0.00 0.00 72 1013.2
20260905131503 75 11 0.0 1.7 0.00 0.00 0.00 73 1013.3
20260905131001 75 327 0.0 1.7 0.00 0.00 0.00 73 1013.4
20260905130601 74 342 0.0 0.9 0.00 0.00 0.00 73 1013.5
20260905130058 73 344 0.0 0.9 0.00 0.00 0.00 75 1013.8
20260905125559 73 344 0.0 0.9 0.00 0.00 0.00 75 1013.9
20260905125100 73 48 0.0 0.9 0.00 0.00 0.00 76 1013.6
20260905124559 72 272 0.0 1.7 0.00 0.00 0.00 77 1013.7
20260905124058 72 257 0.0 1.7 0.00 0.00 0.00 78 1013.7
20260905123558 71 15 0.0 0.0 0.00 0.00 0.00 78 1013.5
20260905123059 71 75 0.0 0.9 0.00 0.00 0.00 78 1013.4
20260905122556 71 299 0.0 0.9 0.00 0.00 0.00 78 1013.5
20260905122056 70 318 0.0 0.9 0.00 0.00 0.00 78 1013.4
20260905121555 70 262 0.0 0.9 0.00 0.00 0.00 78 1013.5
20260905121054 70 249 0.0 0.9 0.00 0.00 0.00 78 1013.6
20260905120554 69 290 0.0 0.0 0.00 0.00 0.00 78 1013.4
20260905120052 69 330 0.0 0.0 0.00 0.00 0.00 79 1013.5
20260905115550 69 330 0.0 0.0 0.00 0.00 0.00 78 1013.5
20260905115050 69 206 0.0 0.0 0.00 0.00 0.00 78 1013.5
20260905114551 69 206 0.0 0.0 0.00 0.00 0.00 78 1013.4
20260905114049 68 206 0.0 0.0 0.00 0.00 0.00 78 1013.4
20260905113548 68 339 0.0 0.0 0.00 0.00 0.00 78 1013.2
20260905113047 68 339 0.0 0.0 0.00 0.00 0.00 78 1013.1
20260905112546 68 339 0.0 0.0 0.00 0.00 0.00 78 1012.9
20260905112045 69 339 0.0 0.0 0.00 0.00 0.00 78 1012.8
20260905111545 68 343 0.0 0.0 0.00 0.00 0.00 78 1012.8
20260905111046 68 345 0.0 0.0 0.00 0.00 0.00 78 1012.7
20260905110544 69 354 0.0 0.9 0.00 0.00 0.00 78 1012.7
20260905110042 69 356 0.0 0.0 0.00 0.00 0.00 78 1012.4
20260905105543 69 356 0.0 0.0 0.00 0.00 0.00 78 1012.4
20260905105042 69 337 0.0 0.0 0.00 0.00 0.00 78 1012.3
20260905104552 69 337 0.0 0.0 0.00 0.00 0.00 78 1012.3
20260905104041 69 18 0.0 0.0 0.00 0.00 0.00 78 1012.3
20260905103545 69 21 0.0 0.0 0.00 0.00 0.00 78 1012.2
20260905103040 69 21 0.0 0.0 0.00 0.00 0.00 78 1012.2
20260905102539 69 21 0.0 1.7 0.00 0.00 0.00 78 1012.2
20260905102038 69 21 0.0 1.7 0.00 0.00 0.00 78 1012.1
20260905101539 69 345 0.0 0.0 0.00 0.00 0.00 78 1012.1
20260905101037 69 345 0.0 0.0 0.00 0.00 0.00 78 1012.1
20260905100536 69 345 0.0 0.0 0.00 0.00 0.00 78 1012.0
20260905100037 69 345 0.0 0.0 0.00 0.00 0.00 78 1012.0
20260905095538 69 345 0.0 0.0 0.00 0.00 0.00 78 1012.0
20260905095037 69 345 0.0 0.0 0.00 0.00 0.00 78 1012.2
20260905094536 69 345 0.0 0.0 0.00 0.00 0.00 78 1012.1
20260905094036 69 345 0.0 0.0 0.00 0.00 0.00 78 1012.1
20260905093534 69 344 0.0 0.0 0.00 0.00 0.00 78 1012.1
20260905093039 69 351 0.0 0.0 0.00 0.00 0.00 77 1012.2
20260905092536 70 351 0.0 0.9 0.00 0.00 0.00 78 1012.2
20260905092032 70 351 0.0 0.0 0.00 0.00 0.00 78 1012.2
20260905091531 70 351 0.0 0.9 0.00 0.00 0.00 78 1012.1
20260905091031 70 351 0.0 0.9 0.00 0.00 0.00 78 1012.1
20260905090530 70 330 0.0 0.0 0.00 0.00 0.00 78 1012.0
20260905090028 70 323 0.0 0.0 0.00 0.00 0.00 78 1012.1
20260905085529 70 323 0.0 0.0 0.00 0.00 0.00 78 1012.2
20260905085029 70 322 0.0 0.0 0.00 0.00 0.00 78 1012.2
20260905084527 70 322 0.0 0.0 0.00 0.00 0.00 78 1012.3
20260905084035 70 323 0.0 0.0 0.00 0.00 0.00 77 1012.3
20260905083525 70 322 0.0 0.0 0.00 0.00 0.00 77 1012.4
20260905083033 70 322 0.0 0.0 0.00 0.00 0.00 77 1012.5
20260905082522 70 322 0.0 0.0 0.00 0.00 0.00 77 1012.7
20260905082026 70 344 0.0 0.0 0.00 0.00 0.00 77 1012.7
20260905081521 70 344 0.0 0.0 0.00 0.00 0.00 77 1012.5
20260905081023 70 344 0.0 0.0 0.00 0.00 0.00 77 1012.6
20260905080519 70 344 0.0 0.0 0.00 0.00 0.00 77 1012.6
20260905080019 71 343 0.0 0.0 0.00 0.00 0.00 77 1012.8
20260905075517 71 344 0.0 0.0 0.00 0.00 0.00 77 1012.9
20260905075015 71 344 0.0 0.0 0.00 0.00 0.00 77 1013.0
20260905074516 71 344 0.0 0.0 0.00 0.00 0.00 77 1012.9
20260905074015 71 344 0.0 0.0 0.00 0.00 0.00 77 1013.0
20260905073514 71 344 0.0 0.0 0.00 0.00 0.00 77 1013.1
20260905073015 71 344 0.0 0.0 0.00 0.00 0.00 77 1013.1
20260905072513 71 344 0.0 0.0 0.00 0.00 0.00 77 1013.0
20260905072011 71 344 0.0 0.0 0.00 0.00 0.00 77 1013.0
20260905071510 71 344 0.0 0.0 0.00 0.00 0.00 77 1013.0
20260905071011 71 343 0.0 0.0 0.00 0.00 0.00 76 1013.2
20260905070508 71 344 0.0 0.0 0.00 0.00 0.00 76 1013.1
20260905070013 71 342 0.0 0.9 0.00 0.00 0.00 76 1013.3
20260905065514 71 342 0.0 0.9 0.00 0.00 0.00 76 1013.3
20260905065013 71 342 0.0 0.9 0.00 0.00 0.00 76 1013.3
20260905064512 71 334 0.0 0.0 0.00 0.00 0.00 76 1013.4
20260905064012 71 334 0.0 0.0 0.00 0.00 0.00 75 1013.4
20260905063510 72 334 0.0 0.0 0.00 0.00 0.00 75 1013.4
20260905063007 72 334 0.0 0.0 0.00 0.00 0.00 74 1013.3
20260905062505 72 334 0.0 0.0 0.00 0.00 0.00 74 1013.4
20260905062004 72 334 0.0 1.7 0.00 0.00 0.00 74 1013.5
20260905061504 72 334 0.0 1.7 0.00 0.00 0.00 74 1013.6
20260905061002 72 334 0.0 1.7 0.00 0.00 0.00 72 1013.8
20260905060601 72 359 0.0 0.0 0.00 0.00 0.00 71 1013.8
20260905060100 72 359 0.0 0.0 0.00 0.00 0.00 70 1014.0
20260905055053 72 359 0.0 0.0 0.00 0.00 0.00 69 1014.1
20260905054554 72 359 0.0 0.0 0.00 0.00 0.00 68 1014.0
20260905054051 72 359 0.0 0.0 0.00 0.00 0.00 67 1014.0
20260905053551 73 359 0.0 0.0 0.00 0.00 0.00 67 1014.1
20260905053049 73 42 0.0 0.0 0.00 0.00 0.00 66 1014.2
20260905052549 73 42 0.0 0.0 0.00 0.00 0.00 66 1014.3
20260905052048 73 42 0.0 0.0 0.00 0.00 0.00 66 1014.2
20260905051547 73 42 0.0 0.0 0.00 0.00 0.00 65 1014.2
20260905051045 73 42 0.0 0.0 0.00 0.00 0.00 66 1014.0
20260905050545 73 42 0.0 0.0 0.00 0.00 0.00 66 1014.0
20260905050046 74 42 0.0 0.0 0.00 0.00 0.00 65 1014.1
20260905045042 74 42 0.0 0.0 0.00 0.00 0.00 65 1014.1
20260905044542 73 42 0.0 0.0 0.00 0.00 0.00 65 1014.2